Location: Zagreb
(45.8000°N, 16.0000°E)
Time: 12:19:14
(UTC+01:00)

Vanguard 1 Rocket - Pass Details

Date: 04 October 2020
Orbit: 656 x 4221 km, 34.3° (Epoch: 28 October)

Event Time Altitude Azimuth Distance (km) Brightness Sun altitude
Rises 00:24:09 0° 279° (W) 7,107 12.1 -48.4°
Reaches altitude 10° 00:29:47 10° 268° (W) 6,545 11.7 -48.5°
Enters shadow 00:39:34 23° 242° (WSW) 6,043 11.3 -48.6°
Maximum altitude 00:46:05 26° 222° (SW) 6,056 - -48.6°
Drops below altitude 10° 01:04:22 10° 177° (S) 7,220 - -48.4°
Sets 01:11:19 0° 166° (SSE) 7,931 - -48.2°
